• en Suisse
  • Liste des pays
  • À 7 jours
  • Température de l'eau
  • Carte satellitaire
  • Carte météo
  • Widgets météo
  • user-avatar
    Se connecter

    Météo par heure à Rakovo

    Ce jour, 18 Septembre, Mardi

    Heure Température Précipitation Vent Pression Humidité
    00:00 +9°C° 0 mm 2 m/s 754 mmHg 73%
    01:00 +9°C° 0 mm 2 m/s 754 mmHg 74%
    02:00 +9°C° 0 mm 1 m/s 754 mmHg 75%
    03:00 +9°C° 0 mm 1 m/s 753 mmHg 79%
    04:00 +9°C° 0 mm 1 m/s 753 mmHg 80%
    05:00 +8°C° 0 mm 1 m/s 753 mmHg 81%
    06:00 +7°C° 0 mm 2 m/s 753 mmHg 82%
    07:00 +9°C° 0 mm 2 m/s 752 mmHg 77%
    08:00 +11°C° 0 mm 3 m/s 752 mmHg 72%
    09:00 +13°C° 0 mm 3 m/s 752 mmHg 66%
    10:00 +15°C° 0 mm 4 m/s 751 mmHg 64%
    11:00 +16°C° 0 mm 5 m/s 751 mmHg 62%
    12:00 +17°C° 0 mm 6 m/s 750 mmHg 60%
    13:00 +17°C° 0.1 mm 5 m/s 750 mmHg 64%
    14:00 +16°C° 0.1 mm 5 m/s 750 mmHg 67%
    15:00 +17°C° 0 mm 4 m/s 750 mmHg 71%
    16:00 +15°C° 0 mm 4 m/s 750 mmHg 73%
    17:00 +16°C° 0 mm 3 m/s 750 mmHg 76%
    18:00 +14°C° 0 mm 3 m/s 750 mmHg 78%
    19:00 +13°C° 0 mm 3 m/s 750 mmHg 80%
    20:00 +13°C° 0 mm 4 m/s 750 mmHg 81%
    21:00 +12°C° 0 mm 4 m/s 751 mmHg 82%
    22:00 +11°C° 0 mm 4 m/s 751 mmHg 83%
    23:00 +11°C° 0 mm 4 m/s 751 mmHg 83%

    Demain, 19 Septembre, Mercredi

    Heure Température Précipitation Vent Pression Humidité
    00:00 +10°C° 0 mm 4 m/s 751 mmHg 84%
    01:00 +9°C° 0 mm 3 m/s 752 mmHg 84%
    02:00 +9°C° 0 mm 3 m/s 752 mmHg 84%
    03:00 +8°C° 0 mm 3 m/s 752 mmHg 85%
    04:00 +8°C° 0 mm 3 m/s 752 mmHg 86%
    05:00 +8°C° 0 mm 3 m/s 753 mmHg 87%
    06:00 +8°C° 0 mm 3 m/s 753 mmHg 89%
    07:00 +8°C° 0 mm 4 m/s 753 mmHg 81%
    08:00 +11°C° 0 mm 4 m/s 753 mmHg 74%
    09:00 +12°C° 0 mm 5 m/s 753 mmHg 67%
    10:00 +14°C° 0 mm 5 m/s 753 mmHg 63%
    11:00 +15°C° 0 mm 5 m/s 753 mmHg 58%
    12:00 +16°C° 0 mm 5 m/s 753 mmHg 54%
    13:00 +15°C° 0.2 mm 4 m/s 752 mmHg 63%
    14:00 +14°C° 0.2 mm 3 m/s 752 mmHg 72%
    15:00 +14°C° 0.2 mm 2 m/s 752 mmHg 81%
    16:00 +14°C° 0 mm 2 m/s 752 mmHg 82%
    17:00 +14°C° 0 mm 1 m/s 752 mmHg 84%
    18:00 +14°C° 0 mm 1 m/s 752 mmHg 85%
    19:00 +14°C° 0 mm 1 m/s 752 mmHg 86%
    20:00 +14°C° 0 mm 1 m/s 752 mmHg 88%
    21:00 +14°C° 0 mm 1 m/s 752 mmHg 89%
    22:00 +14°C° 0 mm 1 m/s 752 mmHg 91%
    23:00 +13°C° 0 mm 2 m/s 752 mmHg 92%

    Après-demain, 20 Septembre, Jeudi

    Heure Température Précipitation Vent Pression Humidité
    00:00 +13°C° 0 mm 2 m/s 752 mmHg 94%
    01:00 +13°C° 0 mm 2 m/s 752 mmHg 94%
    02:00 +13°C° 0 mm 2 m/s 752 mmHg 95%
    03:00 +13°C° 0 mm 2 m/s 752 mmHg 95%
    04:00 +13°C° 0 mm 2 m/s 752 mmHg 96%
    05:00 +12°C° 0 mm 2 m/s 752 mmHg 96%
    06:00 +12°C° 0 mm 2 m/s 752 mmHg 96%
    07:00 +13°C° 0 mm 3 m/s 752 mmHg 92%
    08:00 +16°C° 0 mm 3 m/s 752 mmHg 88%
    09:00 +17°C° 0 mm 3 m/s 752 mmHg 83%
    10:00 +19°C° 0 mm 4 m/s 752 mmHg 76%
    11:00 +21°C° 0 mm 4 m/s 751 mmHg 69%
    12:00 +23°C° 0 mm 5 m/s 751 mmHg 62%
    13:00 +23°C° 0 mm 5 m/s 751 mmHg 61%
    14:00 +25°C° 0 mm 5 m/s 751 mmHg 59%
    15:00 +25°C° 0 mm 5 m/s 751 mmHg 58%
    16:00 +23°C° 0 mm 4 m/s 751 mmHg 64%
    17:00 +21°C° 0 mm 3 m/s 751 mmHg 70%
    18:00 +20°C° 0 mm 3 m/s 752 mmHg 76%
    19:00 +18°C° 0 mm 3 m/s 752 mmHg 81%
    20:00 +17°C° 0 mm 3 m/s 753 mmHg 85%
    21:00 +14°C° 0 mm 3 m/s 753 mmHg 89%
    22:00 +14°C° 0 mm 3 m/s 753 mmHg 91%
    23:00 +14°C° 0 mm 2 m/s 753 mmHg 93%

    21 Septembre, Vendredi

    Heure Température Précipitation Vent Pression Humidité
    00:00 +13°C° 0 mm 2 m/s 754 mmHg 94%
    01:00 +13°C° 0 mm 2 m/s 754 mmHg 95%
    02:00 +13°C° 0 mm 2 m/s 754 mmHg 95%
    03:00 +12°C° 0 mm 2 m/s 754 mmHg 96%
    04:00 +12°C° 0 mm 2 m/s 755 mmHg 96%
    05:00 +12°C° 0 mm 2 m/s 755 mmHg 96%
    06:00 +12°C° 0 mm 2 m/s 755 mmHg 96%
    07:00 +14°C° 0 mm 2 m/s 755 mmHg 91%
    08:00 +15°C° 0 mm 2 m/s 756 mmHg 85%
    09:00 +17°C° 0 mm 2 m/s 756 mmHg 79%
    10:00 +19°C° 0 mm 2 m/s 756 mmHg 72%
    11:00 +20°C° 0 mm 2 m/s 756 mmHg 66%
    12:00 +23°C° 0 mm 2 m/s 756 mmHg 59%
    13:00 +23°C° 0 mm 2 m/s 756 mmHg 57%
    14:00 +24°C° 0 mm 2 m/s 756 mmHg 55%
    15:00 +25°C° 0 mm 2 m/s 756 mmHg 53%
    16:00 +23°C° 0 mm 2 m/s 756 mmHg 59%
    17:00 +22°C° 0 mm 1 m/s 756 mmHg 65%
    18:00 +20°C° 0 mm 1 m/s 756 mmHg 70%
    19:00 +19°C° 0 mm 1 m/s 757 mmHg 74%
    20:00 +16°C° 0 mm 0 m/s 757 mmHg 77%
    21:00 +16°C° 0 mm 0 m/s 757 mmHg 80%
    22:00 +15°C° 0 mm 0 m/s 757 mmHg 81%
    23:00 +16°C° 0 mm 1 m/s 757 mmHg 82%

    22 Septembre, Samedi

    Heure Température Précipitation Vent Pression Humidité
    00:00 +16°C° 0 mm 1 m/s 757 mmHg 84%
    01:00 +15°C° 0 mm 1 m/s 757 mmHg 85%
    02:00 +15°C° 0 mm 1 m/s 758 mmHg 87%
    03:00 +15°C° 0 mm 1 m/s 758 mmHg 88%
    04:00 +14°C° 0 mm 1 m/s 758 mmHg 89%
    05:00 +14°C° 0 mm 1 m/s 758 mmHg 90%
    06:00 +14°C° 0 mm 1 m/s 758 mmHg 91%
    07:00 +16°C° 0 mm 2 m/s 758 mmHg 84%
    08:00 +17°C° 0 mm 2 m/s 758 mmHg 77%
    09:00 +19°C° 0 mm 2 m/s 758 mmHg 71%
    10:00 +21°C° 0 mm 2 m/s 758 mmHg 65%
    11:00 +22°C° 0 mm 3 m/s 758 mmHg 60%
    12:00 +25°C° 0 mm 3 m/s 757 mmHg 54%
    13:00 +25°C° 0 mm 3 m/s 757 mmHg 53%
    14:00 +25°C° 0 mm 3 m/s 757 mmHg 52%
    15:00 +25°C° 0 mm 3 m/s 756 mmHg 51%
    16:00 +24°C° 0 mm 3 m/s 756 mmHg 57%
    17:00 +21°C° 0 mm 3 m/s 756 mmHg 64%
    18:00 +20°C° 0 mm 2 m/s 755 mmHg 70%
    19:00 +19°C° 0 mm 2 m/s 755 mmHg 73%
    20:00 +18°C° 0 mm 2 m/s 755 mmHg 75%
    21:00 +17°C° 0 mm 3 m/s 755 mmHg 78%
    22:00 +17°C° 0 mm 3 m/s 755 mmHg 78%
    23:00 +16°C° 0 mm 3 m/s 755 mmHg 79%

    23 Septembre, Dimanche

    Heure Température Précipitation Vent Pression Humidité
    00:00 +16°C° 0 mm 3 m/s 755 mmHg 79%
    01:00 +16°C° 0 mm 3 m/s 755 mmHg 80%
    02:00 +14°C° 0 mm 3 m/s 754 mmHg 80%
    03:00 +14°C° 0 mm 3 m/s 754 mmHg 80%
    04:00 +14°C° 0 mm 3 m/s 754 mmHg 80%
    05:00 +14°C° 0 mm 3 m/s 754 mmHg 80%
    06:00 +14°C° 0 mm 3 m/s 754 mmHg 80%
    07:00 +15°C° 0 mm 4 m/s 754 mmHg 74%
    08:00 +18°C° 0 mm 4 m/s 753 mmHg 68%
    09:00 +19°C° 0 mm 5 m/s 753 mmHg 62%
    10:00 +21°C° 0 mm 5 m/s 753 mmHg 56%
    11:00 +22°C° 0 mm 6 m/s 752 mmHg 51%
    12:00 +24°C° 0 mm 6 m/s 752 mmHg 46%
    13:00 +24°C° 0 mm 6 m/s 752 mmHg 45%
    14:00 +24°C° 0 mm 6 m/s 751 mmHg 45%
    15:00 +25°C° 0 mm 5 m/s 751 mmHg 44%
    16:00 +23°C° 0 mm 5 m/s 751 mmHg 50%
    17:00 +21°C° 0 mm 4 m/s 750 mmHg 55%
    18:00 +20°C° 0 mm 3 m/s 750 mmHg 61%
    19:00 +19°C° 0 mm 3 m/s 750 mmHg 62%
    20:00 +19°C° 0 mm 4 m/s 750 mmHg 63%
    21:00 +18°C° 0 mm 4 m/s 750 mmHg 65%
    22:00 +18°C° 0 mm 4 m/s 750 mmHg 66%
    23:00 +17°C° 0 mm 4 m/s 750 mmHg 68%
    Voir plus